Regional Weather Roundup
Issued by NWS

Home | Current Version | Previous Version | Graphics & Text | Print | Product List | Glossary On
Versions: 1 2 3 4 5 6 7 8 9 10 11 12 13 14 15 16 17 18 19 20 21 22 23 24 25 26 27 28 29 30 31 32 33 34 35 36 37 38 39 40 41 42 43 44 45 46 47 48 49 50
000
ASUS45 KSLC 191410
RWRUT

UTAH REGIONAL WEATHER ROUNDUP
NATIONAL WEATHER SERVICE SALT LAKE CITY UT
800 AM MDT FRI SEP 19 2014

UTZ001>011-023>025-191500-

NORTHERN UTAH

CITY           SKY/WX    TMP DP  RH WIND       PRES   REMARKS
HILL AFB       PTCLDY    63  51  64 VRB5      30.05R
LOGAN          PTCLDY    54  54 100 W5        30.06R
OGDEN          PTCLDY    60  56  86 CALM      30.03R
PROVO AIRPORT  MOCLDY    61  55  82 NE3       30.04R
SALT LAKE CITY PTCLDY    61  58  90 SW5       30.01R
VERNAL         MOSUNNY   65  46  50 NE6       30.08R
WENDOVER       MOCLDY    64  48  55 W3        30.04R
HEBER CITY     PTCLDY    50  46  87 E3        30.12R
WEST JORDAN    CLEAR     63  57  82 CALM      30.05R

$$

UTZ012>022-026-027-191500-

SOUTHERN UTAH

CITY           SKY/WX    TMP DP  RH WIND       PRES   REMARKS
BRYCE CANYON   CLOUDY    52  46  80 W7        30.22R
CEDAR CITY     PTCLDY    57  48  72 NE6       30.08R
MILFORD        PTCLDY    63  51  65 SW6       30.04R
MOAB/CYNLANDS  SUNNY     67  39  35 CALM      29.97R
PRICE          CLEAR     63  42  46 CALM      30.08R
ST GEORGE      MOSUNNY   73  52  46 CALM      29.92R
KANAB            N/A     63  48  59 N3        30.08R

$$

REGIONAL REPORTS     COLORADO/ARIZONA

CITY           SKY/WX    TMP DP  RH WIND       PRES   REMARKS
CRAIG, CO      SUNNY     52  42  69 CALM      30.16R
GRAND JUNCTION MOSUNNY   60  43  53 SE7       30.02R
RIFLE          PTSUNNY   53  44  71 CALM      30.11R
MONTROSE       SUNNY     57  44  62 S7        30.11R
CORTEZ         SUNNY     51  44  77 CALM      30.13R
PAGE, AZ       MOCLDY    76  50  40 W3        29.98R
GRAND CANYON   MOCLDY    54  51  90 NE5       30.17R
KINGMAN        PTCLDY    64  44  48 SE12      29.94R
FLAGSTAFF      CLOUDY    58  56  93 SW3       30.19R

$$

REGIONAL REPORTS    NEVADA/IDAHO/WYOMING

CITY           SKY/WX    TMP DP  RH WIND       PRES   REMARKS
LAS VEGAS, NV  PTCLDY    75  46  35 S9        29.81R
ELY            PTCLDY    45  37  73 S9        30.14R
ELKO           CLEAR     47  44  90 CALM      30.10R FOG
POCATELLO, ID  CLEAR     57  46  66 SW15      30.08R
BURLEY         CLEAR     55  44  66 SW7       30.06R
EVANSTON, WY   MOCLDY    53  49  86 CALM      30.18R
ROCK SPRINGS   PTSUNNY   54  48  80 SE7       30.13S

$$



USA.gov is the U.S. government's official web portal to all federal, state and local government web resources and services.